TimeEST,TemperatureF,Dew PointF,Humidity,Sea Level PressureIn,VisibilityMPH,Wind Direction,Wind SpeedMPH,Gust SpeedMPH,PrecipitationIn,Events,Conditions,WindDirDegrees,DateUTC
12:15 AM,37.4,37.4,100,30.25,0.2,Calm,Calm,-,N/A,Fog,Fog,0,2013-03-09 05:15:00
12:35 AM,37.4,37.4,100,30.24,2.5,Calm,Calm,-,N/A,,Clear,0,2013-03-09 05:35:00
12:55 AM,37.4,35.6,93,30.24,3.0,Calm,Calm,-,N/A,,Clear,0,2013-03-09 05:55:00
1:15 AM,35.6,35.6,100,30.24,2.5,Calm,Calm,-,N/A,,Clear,0,2013-03-09 06:15:00
1:35 AM,35.6,35.6,100,30.24,3.0,Calm,Calm,-,N/A,,Clear,0,2013-03-09 06:35:00
1:55 AM,35.6,35.6,100,30.24,1.5,Calm,Calm,-,N/A,,Clear,0,2013-03-09 06:55:00
2:15 AM,37.4,37.4,100,30.23,1.8,Calm,Calm,-,N/A,,Clear,0,2013-03-09 07:15:00
2:55 AM,35.6,35.6,100,30.21,1.5,Calm,Calm,-,N/A,,Clear,0,2013-03-09 07:55:00
3:15 AM,33.8,33.8,100,30.21,1.8,Calm,Calm,-,N/A,,Clear,0,2013-03-09 08:15:00
3:35 AM,35.6,35.6,100,30.20,2.0,Calm,Calm,-,N/A,,Clear,0,2013-03-09 08:35:00
3:55 AM,33.8,33.8,100,30.20,3.0,Calm,Calm,-,N/A,,Clear,0,2013-03-09 08:55:00
4:15 AM,35.6,35.6,100,30.20,3.0,Calm,Calm,-,N/A,,Clear,0,2013-03-09 09:15:00
4:35 AM,35.6,35.6,100,30.21,4.0,Calm,Calm,-,N/A,,Clear,0,2013-03-09 09:35:00
4:55 AM,37.4,37.4,100,30.20,5.0,Calm,Calm,-,N/A,,Clear,0,2013-03-09 09:55:00
5:15 AM,35.6,35.6,100,30.21,3.0,Calm,Calm,-,N/A,,Clear,0,2013-03-09 10:15:00
5:35 AM,35.6,35.6,100,30.22,2.5,Calm,Calm,-,N/A,,Clear,0,2013-03-09 10:35:00
5:55 AM,33.8,32.0,93,30.22,3.0,Calm,Calm,-,N/A,,Clear,0,2013-03-09 10:55:00
6:15 AM,33.8,33.8,100,30.23,2.0,Calm,Calm,-,N/A,,Clear,0,2013-03-09 11:15:00
6:35 AM,33.8,32.0,93,30.23,2.0,Calm,Calm,-,N/A,,Clear,0,2013-03-09 11:35:00
6:50 AM,33.8,33.8,100,30.23,7.0,Calm,Calm,-,N/A,,Clear,0,2013-03-09 11:50:00
7:50 AM,39.2,39.2,100,30.25,10.0,Calm,Calm,-,N/A,,Clear,0,2013-03-09 12:50:00
8:50 AM,51.8,44.6,76,30.27,10.0,NNE,5.8,-,N/A,,Clear,30,2013-03-09 13:50:00
10:50 AM,62.6,44.6,52,30.29,10.0,East,13.8,-,N/A,,Clear,90,2013-03-09 15:50:00
11:50 AM,66.2,42.8,43,30.28,10.0,East,6.9,-,N/A,,Clear,80,2013-03-09 16:50:00
12:50 PM,68.0,41.0,37,30.26,10.0,ENE,11.5,-,N/A,,Clear,60,2013-03-09 17:50:00
2:50 PM,66.2,44.6,46,30.23,10.0,ENE,11.5,-,N/A,,Clear,60,2013-03-09 19:50:00
3:50 PM,64.4,46.4,52,30.23,10.0,East,11.5,-,N/A,,Clear,90,2013-03-09 20:50:00
4:50 PM,60.8,46.4,59,30.23,10.0,ENE,11.5,-,N/A,,Clear,60,2013-03-09 21:50:00
5:50 PM,57.2,48.2,72,30.25,10.0,ENE,9.2,-,N/A,,Clear,70,2013-03-09 22:50:00
6:50 PM,55.4,48.2,77,30.25,10.0,ENE,5.8,-,N/A,,Clear,70,2013-03-09 23:50:00
7:50 PM,55.4,44.6,67,30.26,10.0,ENE,8.1,-,N/A,,Clear,60,2013-03-10 00:50:00
8:15 PM,53.6,46.4,77,30.26,10.0,Calm,Calm,-,N/A,,Clear,0,2013-03-10 01:15:00
8:35 PM,51.8,46.4,82,30.26,10.0,Calm,Calm,-,N/A,,Clear,0,2013-03-10 01:35:00
8:55 PM,51.8,46.4,82,30.26,10.0,Calm,Calm,-,N/A,,Clear,0,2013-03-10 01:55:00
9:15 PM,51.8,46.4,82,30.26,10.0,Calm,Calm,-,N/A,,Clear,0,2013-03-10 02:15:00
9:35 PM,50.0,46.4,87,30.25,10.0,Calm,Calm,-,N/A,,Clear,0,2013-03-10 02:35:00
10:15 PM,46.4,44.6,93,30.25,10.0,Calm,Calm,-,N/A,,Clear,0,2013-03-10 03:15:00
10:35 PM,46.4,44.6,93,30.26,10.0,Calm,Calm,-,N/A,,Clear,0,2013-03-10 03:35:00
10:55 PM,46.4,44.6,93,30.25,10.0,Calm,Calm,-,N/A,,Clear,0,2013-03-10 03:55:00
11:15 PM,46.4,44.6,93,30.24,10.0,Calm,Calm,-,N/A,,Clear,0,2013-03-10 04:15:00
11:35 PM,46.4,44.6,93,30.23,10.0,Calm,Calm,-,N/A,,Clear,0,2013-03-10 04:35:00
11:55 PM,46.4,44.6,93,30.23,10.0,Calm,Calm,-,N/A,,Clear,0,2013-03-10 04:55:00